Wind_Speed
6 6 5 6 7 8 10 11 12 14 14 14 16 17 17 15 13 12 13 13 19 23 26 29 29 20 23 18 16 16 13 13 12 12 13 8 3 7 11 13 19 25 22 25 19 17 20
4 4 3 5 6 7 9 10 12 14 15 14 15 17 18 16 14 12 12 11 16 21 23 28 27 23 22 17 16 13 13 13 13 14 16 10 4 7 13 10 11 13 17 17 20 19 21
2 2 3 4 6 7 8 10 11 13 15 15 15 16 17 17 15 12 11 10 14 18 21 25 23 19 22 21 15 14 14 14 15 16 16 10 4 5 8 10 12 15 16 16 18 20 21
1 1 2 4 5 7 9 10 11 13 15 16 16 15 16 17 16 13 11 9 9 17 19 20 23 21 20 22 20 12 15 16 14 15 17 7 3 4 7 5 8 6 11 16 13 14 23
1 1 2 3 5 6 9 11 11 13 15 16 16 16 16 16 16 14 11 9 6 14 18 15 24 18 21 21 20 14 15 14 16 18 21 21 11 6 7 6 6 6 9 9 10 16 24
1 1 2 3 4 6 8 10 13 13 15 15 16 17 16 17 16 14 11 10 7 8 17 15 19 12 19 18 18 15 15 13 13 14 14 19 20 19 5 4 4 7 6 11 9 10 24
1 3 3 4 5 7 8 10 12 13 14 15 16 16 16 17 17 15 11 10 8 5 11 16 15 19 14 14 15 14 14 12 14 16 12 14 15 15 15 17 7 3 9 8 10 7 14
3 4 4 5 6 7 9 11 11 12 13 14 15 16 16 17 18 16 14 10 9 6 7 13 12 14 16 13 13 13 13 12 12 13 13 9 12 12 12 13 6 8 4 4 4 4 10
6 6 6 6 7 8 9 10 12 12 12 13 14 15 17 17 18 18 16 11 10 7 5 9 12 11 13 9 13 12 13 15 15 10 8 9 9 10 13 10 3 1 1 8 4 5 9
10 8 8 7 8 8 10 11 11 12 12 11 13 14 16 17 17 19 17 14 11 8 3 8 11 11 11 10 9 10 12 14 16 12 6 5 8 7 10 8 3 2 5 3 4 3 3
12 11 10 9 9 9 10 11 12 11 11 10 11 13 14 16 17 18 18 16 10 5 4 12 10 12 10 9 9 8 10 12 11 8 8 4 8 7 6 9 8 9 2 6 2 2 4
15 14 13 12 10 11 10 10 11 12 11 10 10 11 12 15 16 17 18 16 7 4 3 7 9 10 10 8 8 9 7 9 8 6 6 8 6 5 4 7 6 6 2 2 1 1 2
19 16 15 14 13 12 11 10 12 11 10 10 9 10 11 13 15 15 16 15 4 4 12 10 11 11 10 8 7 7 6 5 6 7 11 7 7 5 4 0 2 1 2 3 3 2 3
21 20 18 16 15 14 13 12 11 12 11 9 9 9 10 11 13 12 14 11 4 13 12 14 14 10 8 9 6 8 7 7 6 5 8 9 4 8 8 7 6 4 4 3 2 1 3
24 23 21 20 18 17 16 14 13 12 13 11 10 10 11 11 12 10 12 5 8 14 15 15 13 8 9 9 7 8 6 6 6 8 7 4 4 8 7 8 8 7 7 6 5 3 2
27 27 25 24 22 21 20 18 16 15 14 14 12 10 10 11 11 12 10 8 13 15 16 15 9 6 11 12 8 9 6 5 7 8 8 5 8 5 7 9 7 7 9 4 3 2 3
32 31 30 28 27 25 23 22 19 18 17 16 15 14 11 10 11 11 10 11 15 15 16 13 14 12 10 12 13 9 5 8 6 8 9 10 5 5 9 5 7 6 4 3 4 1 2
38 37 35 32 31 29 27 25 24 20 20 18 17 17 12 13 14 11 10 11 13 14 15 16 15 11 13 11 11 8 7 8 10 11 10 7 8 10 9 10 10 11 9 7 2 3 3
44 42 40 38 35 33 30 28 27 25 22 22 20 20 18 17 18 14 14 11 12 13 16 18 15 18 16 15 9 9 9 11 11 10 7 8 4 9 6 2 3 3 8 7 6 6 4
50 48 46 44 42 38 36 33 31 28 26 24 23 20 19 17 17 18 17 15 10 13 15 18 19 18 17 17 14 10 13 12 13 15 13 12 8 9 10 15 19 21 15 12 9 5 5
55 53 52 51 48 44 40 37 36 32 30 28 26 24 24 19 16 14 15 19 18 14 15 17 18 17 17 18 18 18 11 11 15 16 14 11 13 17 18 20 23 23 19 18 19 16 11
57 59 57 55 53 50 46 42 39 38 35 33 31 29 27 27 25 24 23 24 19 16 15 18 18 18 18 20 19 21 21 18 17 14 11 14 13 22 24 18 12 17 17 16 17 18 20
49 55 58 59 58 55 52 49 45 43 40 39 35 33 31 32 29 29 28 23 21 18 18 16 19 20 20 19 20 19 20 19 20 19 20 20 15 12 9 10 18 11 3 6 10 7 8
42 46 51 57 61 59 57 53 50 48 45 42 40 36 35 39 35 32 30 26 23 21 21 19 20 21 21 21 22 23 23 24 25 25 25 24 19 12 12 12 1 2 10 9 8 3 4
40 42 44 49 55 60 61 58 55 53 48 46 43 41 40 43 37 36 32 28 25 25 23 21 21 20 22 22 22 19 19 20 21 23 24 23 18 8 6 5 10 1 6 9 10 7 4
38 37 42 46 49 53 60 61 58 56 53 49 45 43 43 44 46 36 34 31 27 26 26 24 21 19 21 22 20 11 8 11 8 6 9 12 14 14 6 4 3 0 7 7 8 10 13
40 35 37 43 46 50 51 58 60 56 55 51 48 45 45 47 46 40 36 33 31 28 26 24 22 20 20 21 21 18 17 16 9 9 9 12 11 20 17 7 3 4 6 6 3 1 3
36 36 35 38 43 49 47 48 56 56 55 51 51 47 45 48 47 43 38 37 35 32 28 25 22 23 22 20 19 19 13 13 15 19 14 10 7 8 9 9 3 4 7 9 7 11 14
32 32 33 31 33 37 38 43 45 47 53 50 51 49 47 46 47 41 41 39 35 30 29 26 26 26 16 14 16 14 14 12 14 10 17 16 16 8 9 8 11 12 16 15 16 20 25
Wind_Direction
91 74 60 43 30 20 17 18 19 15 13 22 18 13 4 356 353 355 3 6 7 9 9 10 9 7 1 355 349 346 352 353 350 343 341 326 295 254 250 246 253 253 266 254 252 244 232
90 71 43 31 20 13 13 10 14 13 13 14 19 16 7 -0 359 356 3 8 10 10 9 12 12 13 9 357 0 357 356 354 349 344 342 336 305 259 243 245 253 266 265 264 255 257 241
87 55 19 11 7 2 2 5 10 10 11 10 13 14 10 5 2 360 1 8 12 12 10 14 11 16 13 13 359 0 358 348 342 339 337 328 282 235 259 266 270 262 266 266 257 243 240
185 346 356 344 351 352 352 358 1 5 8 8 7 9 9 8 4 3 1 6 9 14 13 13 9 13 16 13 11 2 359 7 16 16 13 357 339 243 287 294 272 306 275 274 269 249 226
266 324 318 325 331 344 342 345 351 356 1 5 4 4 6 7 7 4 4 5 352 13 15 13 13 14 21 12 20 28 22 39 36 52 43 41 1 311 269 288 282 278 263 287 281 259 210
263 301 317 322 326 332 333 337 341 349 353 360 0 2 4 5 6 5 4 5 349 355 17 14 16 17 17 17 15 31 36 35 39 26 31 40 34 31 50 257 267 309 261 293 332 203 208
259 296 330 332 340 332 332 334 340 344 350 355 358 360 3 4 5 4 3 8 354 334 0 12 14 16 15 17 19 29 30 33 32 23 27 38 31 18 26 33 56 353 314 295 11 189 202
260 286 310 323 337 337 335 337 344 344 348 353 357 357 2 4 4 2 1 2 2 340 335 3 5 11 11 23 25 28 21 11 5 5 27 31 24 11 14 8 24 29 8 17 5 183 210
261 273 291 308 327 335 335 339 342 346 346 349 355 357 359 4 4 3 2 357 355 343 318 347 1 4 10 11 28 21 14 10 6 4 3 16 12 9 9 13 11 18 70 22 9 209 225
262 266 279 297 312 325 333 338 340 342 344 345 349 356 359 1 4 3 1 357 353 350 331 346 359 5 7 5 18 21 9 4 5 13 9 18 14 9 12 22 16 24 143 350 356 41 271
259 266 272 284 296 310 323 336 336 336 339 342 345 350 357 1 1 2 0 0 355 11 24 345 349 352 351 7 1 14 9 3 1 7 2 11 358 2 43 33 63 76 71 332 338 303 9
245 255 264 271 282 298 313 325 331 333 334 338 341 346 353 358 1 360 360 358 15 7 332 344 336 343 343 342 351 349 0 4 354 352 359 346 342 28 56 56 117 35 193 326 37 230 324
243 243 252 263 273 286 302 315 320 325 329 332 332 338 345 351 358 358 360 358 18 28 341 342 341 330 339 342 329 349 351 357 8 351 345 326 354 337 317 308 108 251 238 337 1 18 218
242 244 247 251 262 271 283 298 307 313 318 321 321 321 330 340 353 356 1 7 7 346 349 345 339 336 335 349 337 338 330 339 334 353 340 336 329 335 320 322 310 312 313 331 272 270 304
246 247 248 252 256 264 273 281 293 300 305 309 310 310 313 320 338 345 359 12 349 340 340 340 341 343 347 343 336 336 325 333 344 340 348 334 300 320 317 324 325 328 342 341 313 336 306
247 249 250 252 256 260 267 275 282 290 292 297 300 303 303 308 318 334 334 356 344 342 338 338 344 333 332 337 330 333 324 315 339 344 341 310 308 277 302 310 318 333 335 328 339 16 316
250 249 249 250 253 258 262 266 272 280 285 287 290 294 294 297 301 310 313 328 341 343 338 330 326 320 327 331 330 323 313 322 323 329 327 314 291 291 304 265 291 315 329 325 318 334 157
253 253 251 250 251 254 256 262 267 270 277 280 283 286 282 287 289 288 298 312 339 354 347 329 325 323 320 324 323 315 310 314 321 322 323 312 293 293 291 278 287 300 307 316 327 338 302
254 252 253 255 254 254 253 256 259 263 267 274 277 278 279 281 279 277 283 283 311 337 351 338 320 315 313 311 315 304 307 320 318 331 320 319 291 309 315 349 10 330 329 314 293 284 259
254 256 255 252 250 251 254 253 253 257 260 264 269 273 276 275 274 273 279 278 282 313 328 345 331 317 309 307 302 285 296 303 309 319 318 311 281 277 268 295 297 295 294 286 268 247 263
253 251 251 253 253 252 250 251 255 252 256 258 260 262 266 266 266 270 256 278 289 298 310 333 333 324 303 297 300 298 296 300 305 306 308 303 294 299 302 303 293 293 291 277 265 259 257
253 252 250 250 250 251 250 248 250 252 251 254 256 258 258 263 266 264 264 272 279 289 293 314 326 324 306 293 294 289 290 294 297 294 290 295 290 302 307 309 299 300 299 281 273 262 264
259 255 251 249 248 247 247 246 245 247 249 251 252 256 258 258 260 263 267 268 274 278 289 300 318 316 307 302 292 289 287 287 284 285 285 284 283 298 289 301 305 302 17 16 353 294 250
264 260 256 250 245 244 242 242 241 243 245 248 251 252 251 257 255 258 263 267 268 269 279 288 305 309 309 299 291 287 284 285 284 279 274 269 270 275 282 300 325 332 319 342 351 298 308
267 265 261 255 250 245 241 239 238 238 241 244 247 248 252 254 254 256 257 262 262 263 272 279 293 300 295 290 289 290 289 290 280 268 260 257 249 248 262 267 291 61 43 24 29 27 358
281 268 262 257 251 245 241 237 235 236 236 237 241 246 248 253 254 254 255 257 257 259 268 271 282 292 291 283 279 265 259 273 266 273 260 240 226 218 228 252 253 355 351 18 16 54 76
290 287 269 257 250 244 242 237 232 232 235 236 236 238 242 248 253 253 253 256 254 254 262 270 277 286 287 278 264 258 259 251 248 244 240 224 233 230 232 242 255 359 55 30 49 27 304
291 294 284 262 249 245 233 237 232 230 230 233 238 237 238 244 248 250 251 250 251 252 261 266 270 278 282 261 252 256 243 245 246 245 253 245 231 241 214 211 216 161 348 334 289 266 269
291 294 293 270 258 238 236 238 225 236 230 231 237 235 236 240 245 245 247 246 248 250 252 255 261 272 264 255 246 241 235 234 240 241 237 235 224 216 219 208 213 260 300 301 279 279 279
Height
3168 3168 3168 3168 3167 3167 3166 3164 3162 3160 3158 3155 3152 3150 3148 3145 3142 3139 3137 3135 3132 3128 3124 3119 3113 3109 3106 3104 3101 3098 3096 3093 3091 3090 3088 3085 3085 3085 3085 3086 3087 3086 3087 3088 3091 3093 3095
3169 3169 3170 3169 3168 3167 3166 3165 3163 3161 3158 3155 3152 3150 3147 3144 3140 3138 3136 3135 3132 3129 3125 3120 3115 3110 3107 3105 3100 3098 3096 3094 3092 3089 3087 3085 3084 3083 3083 3082 3085 3084 3085 3085 3087 3089 3090
3170 3170 3171 3170 3170 3168 3167 3165 3163 3161 3158 3155 3153 3149 3146 3143 3140 3137 3135 3134 3133 3129 3125 3121 3117 3112 3110 3106 3101 3099 3096 3094 3091 3088 3086 3084 3082 3083 3082 3082 3082 3082 3082 3082 3082 3085 3086
3170 3170 3170 3170 3169 3169 3168 3165 3164 3161 3158 3156 3153 3149 3146 3142 3139 3136 3135 3133 3133 3130 3126 3122 3118 3114 3110 3106 3101 3099 3097 3094 3091 3089 3085 3083 3082 3082 3081 3081 3081 3081 3080 3078 3079 3080 3082
3171 3170 3170 3169 3169 3168 3168 3166 3164 3161 3158 3155 3153 3149 3145 3142 3139 3136 3134 3132 3132 3130 3126 3123 3120 3115 3111 3109 3104 3101 3098 3096 3093 3091 3088 3086 3083 3082 3081 3081 3081 3080 3078 3077 3075 3074 3078
3170 3170 3170 3168 3167 3167 3166 3165 3164 3161 3158 3155 3153 3149 3146 3142 3139 3136 3133 3131 3131 3130 3127 3123 3120 3118 3114 3111 3107 3103 3100 3097 3095 3093 3091 3088 3085 3082 3081 3082 3081 3079 3077 3076 3073 3073 3074
3170 3171 3169 3168 3167 3166 3164 3164 3162 3161 3158 3155 3152 3149 3145 3142 3139 3136 3132 3131 3132 3131 3127 3124 3122 3118 3114 3112 3109 3105 3102 3099 3096 3095 3091 3088 3088 3085 3083 3081 3080 3079 3078 3076 3073 3073 3076
3168 3169 3168 3168 3166 3165 3164 3162 3160 3159 3157 3154 3151 3149 3145 3142 3139 3136 3133 3130 3128 3129 3127 3125 3122 3119 3115 3112 3110 3107 3104 3102 3098 3095 3093 3091 3088 3086 3083 3081 3080 3080 3078 3077 3076 3077 3080
3168 3167 3167 3167 3165 3164 3163 3161 3159 3157 3156 3154 3151 3149 3146 3142 3138 3136 3133 3130 3127 3126 3126 3125 3122 3120 3117 3114 3111 3109 3106 3103 3099 3096 3094 3091 3090 3087 3085 3083 3081 3080 3080 3079 3079 3077 3078
3166 3165 3166 3165 3165 3162 3162 3160 3158 3156 3154 3153 3151 3148 3145 3142 3140 3136 3133 3129 3127 3125 3125 3126 3122 3120 3117 3114 3112 3109 3107 3106 3100 3098 3094 3093 3090 3088 3086 3084 3082 3081 3081 3080 3080 3079 3078
3163 3163 3163 3163 3163 3162 3160 3159 3157 3155 3153 3151 3149 3147 3144 3141 3139 3136 3134 3129 3127 3126 3127 3126 3122 3120 3117 3115 3113 3110 3108 3105 3103 3100 3098 3095 3091 3088 3086 3084 3083 3083 3080 3079 3078 3078 3078
3158 3160 3161 3161 3160 3160 3158 3157 3156 3154 3152 3150 3148 3146 3144 3141 3139 3136 3132 3129 3127 3128 3125 3124 3122 3119 3117 3114 3112 3110 3108 3106 3104 3101 3098 3095 3092 3090 3087 3084 3082 3081 3080 3078 3078 3078 3078
3154 3154 3156 3158 3158 3157 3156 3154 3154 3152 3150 3149 3147 3146 3143 3141 3139 3136 3132 3130 3129 3127 3128 3125 3121 3118 3115 3113 3111 3110 3108 3106 3104 3102 3098 3096 3094 3091 3088 3085 3083 3082 3081 3079 3080 3079 3079
3150 3151 3151 3153 3153 3154 3153 3152 3151 3150 3149 3146 3145 3144 3143 3140 3138 3136 3133 3131 3128 3127 3125 3122 3119 3117 3115 3113 3111 3109 3107 3106 3104 3102 3098 3097 3095 3092 3089 3088 3086 3085 3084 3083 3084 3082 3078
3146 3147 3148 3149 3149 3150 3149 3148 3148 3147 3146 3145 3142 3142 3141 3140 3138 3136 3134 3131 3130 3127 3124 3121 3118 3115 3114 3112 3110 3108 3106 3106 3104 3102 3101 3097 3094 3092 3091 3090 3091 3086 3086 3086 3083 3082 3080
3140 3142 3143 3144 3145 3145 3146 3146 3145 3143 3143 3141 3140 3139 3139 3137 3136 3135 3134 3131 3128 3126 3123 3120 3118 3116 3114 3111 3109 3107 3105 3104 3103 3101 3099 3097 3094 3091 3090 3090 3088 3087 3087 3085 3083 3083 3081
3133 3134 3136 3137 3139 3140 3141 3141 3141 3140 3139 3138 3137 3135 3135 3134 3134 3133 3132 3130 3127 3125 3122 3120 3117 3115 3113 3111 3109 3106 3106 3104 3102 3100 3099 3096 3095 3092 3090 3087 3086 3085 3084 3084 3083 3082 3082
3126 3127 3128 3129 3131 3133 3134 3136 3136 3135 3135 3134 3133 3133 3131 3131 3131 3128 3128 3127 3126 3123 3121 3119 3116 3113 3112 3110 3108 3106 3104 3103 3101 3100 3098 3097 3094 3089 3088 3086 3086 3084 3083 3083 3083 3083 3081
3117 3119 3120 3122 3124 3126 3127 3128 3129 3130 3129 3129 3127 3127 3127 3127 3126 3125 3124 3123 3122 3120 3118 3116 3115 3112 3110 3108 3108 3104 3102 3102 3100 3099 3097 3096 3093 3090 3086 3087 3085 3083 3083 3082 3081 3081 3079
3105 3108 3111 3112 3114 3117 3120 3121 3122 3122 3123 3124 3123 3122 3121 3121 3121 3121 3120 3119 3119 3117 3114 3113 3111 3109 3108 3105 3105 3103 3101 3100 3099 3097 3095 3094 3091 3091 3089 3086 3084 3081 3080 3080 3080 3079 3077
3090 3093 3097 3101 3103 3106 3109 3112 3115 3114 3116 3117 3116 3116 3116 3115 3115 3115 3116 3115 3115 3114 3112 3109 3106 3105 3105 3103 3101 3100 3098 3097 3097 3095 3093 3092 3089 3086 3085 3082 3079 3076 3075 3075 3074 3076 3076
3074 3078 3081 3086 3090 3094 3098 3101 3104 3105 3107 3108 3109 3110 3109 3108 3109 3110 3109 3109 3110 3110 3109 3106 3104 3101 3100 3099 3099 3096 3096 3095 3093 3092 3091 3089 3086 3083 3078 3077 3074 3072 3071 3070 3069 3069 3069
3057 3060 3064 3069 3074 3079 3084 3088 3091 3093 3097 3097 3100 3101 3102 3100 3101 3103 3103 3103 3104 3103 3104 3102 3100 3097 3095 3095 3093 3092 3091 3090 3089 3088 3087 3085 3083 3081 3075 3074 3072 3069 3068 3067 3066 3065 3068
3043 3044 3047 3050 3055 3061 3067 3073 3077 3079 3084 3087 3090 3092 3092 3089 3092 3094 3096 3097 3098 3098 3097 3097 3095 3093 3092 3088 3088 3087 3085 3084 3083 3082 3080 3079 3079 3079 3074 3072 3071 3068 3067 3066 3064 3065 3066
3030 3031 3031 3034 3038 3044 3049 3056 3061 3064 3069 3074 3078 3081 3081 3078 3083 3084 3087 3089 3090 3091 3091 3091 3090 3089 3086 3085 3083 3080 3079 3077 3074 3073 3072 3072 3075 3075 3073 3070 3067 3065 3065 3065 3064 3066 3065
3016 3016 3016 3017 3021 3025 3031 3038 3045 3050 3053 3058 3065 3069 3070 3070 3069 3077 3078 3080 3081 3083 3085 3084 3084 3083 3081 3080 3079 3077 3075 3073 3071 3069 3068 3068 3069 3072 3070 3069 3065 3064 3064 3063 3063 3065 3065
3003 3004 3002 3002 3004 3007 3013 3020 3028 3034 3039 3044 3049 3054 3057 3056 3060 3067 3068 3070 3073 3075 3076 3077 3078 3077 3076 3074 3073 3073 3070 3070 3068 3065 3065 3065 3065 3065 3066 3065 3062 3062 3061 3061 3063 3068 3062
2993 2991 2988 2987 2989 2989 2998 3004 3012 3019 3024 3030 3035 3043 3045 3045 3048 3055 3058 3060 3063 3066 3068 3071 3072 3070 3069 3068 3067 3066 3063 3063 3062 3061 3061 3062 3063 3062 3061 3061 3061 3059 3059 3061 3062 3060 3059
2984 2981 2978 2975 2975 2979 2987 2993 3001 3007 3012 3018 3021 3029 3034 3036 3036 3042 3047 3050 3054 3057 3060 3061 3062 3063 3063 3062 3062 3060 3058 3056 3056 3057 3055 3057 3057 3057 3058 3055 3055 3055 3055 3054 3054 3054 3053